This is the latest recevied weather packets stored in our database for station/object OK2ZAW-16. If no packets are shown the sender has not sent any weather packets the latest 1 day(s).
| Time | Temp. | Humidity | Pressure | Rain* | Wind** | Luminosity | Snow |
|---|---|---|---|---|---|---|---|
| 1778087661 | 10° C | 68% | 1007.4 hPa | - | - | 131 W/m² | - |
| 1778087627 | 10° C | 68% | 1007.4 hPa | - | - | 131 W/m² | - |
| 1778085774 | 10.56° C | 66% | 1007.5 hPa | - | - | 131 W/m² | - |
| 1778083927 | 10.56° C | 64% | 1007.6 hPa | - | - | 131 W/m² | - |
| 1778083054 | 11.67° C | 62% | 1008 hPa | - | - | 132 W/m² | - |
| 1778082994 | 11.67° C | 62% | 1008 hPa | - | - | 132 W/m² | - |
| 1778082685 | 11.67° C | 62% | 1008 hPa | - | - | 132 W/m² | - |
| 1778082376 | 12.22° C | 61% | 1008.1 hPa | - | - | 132 W/m² | - |
| 1778082073 | 13.33° C | 60% | 1008.1 hPa | - | - | 132 W/m² | - |
| 1778081758 | 13.89° C | 60% | 1008.3 hPa | - | - | 132 W/m² | - |
| 1778081449 | 14.44° C | 60% | 1008.3 hPa | - | - | 132 W/m² | - |
| 1778080219 | 13.89° C | 61% | 1008.5 hPa | - | - | 137 W/m² | - |
| 1778078049 | 14.44° C | 60% | 1008.8 hPa | - | - | 137 W/m² | - |
| 1778077740 | 14.44° C | 59% | 1008.9 hPa | - | - | 137 W/m² | - |
| 1778077431 | 15° C | 59% | 1008.8 hPa | - | - | 137 W/m² | - |
| 1778077122 | 15.56° C | 59% | 1008.8 hPa | - | - | 134 W/m² | - |
| 1778075576 | 16.67° C | 58% | 1009 hPa | - | - | 137 W/m² | - |
| 1778074652 | 17.78° C | 58% | 1009.1 hPa | - | - | 137 W/m² | - |
| 1778074648 | 17.78° C | 58% | 1009.1 hPa | - | - | 137 W/m² | - |
| 1778074345 | 17.78° C | 58% | 1009.1 hPa | - | - | 137 W/m² | - |
| 1778074029 | 17.22° C | 59% | 1009.2 hPa | - | - | 137 W/m² | - |
| 1778073720 | 17.22° C | 59% | 1009.3 hPa | - | - | 137 W/m² | - |
| 1778073417 | 16.67° C | 59% | 1009.4 hPa | - | - | 137 W/m² | - |
| 1778073411 | 16.67° C | 59% | 1009.4 hPa | - | - | 137 W/m² | - |
| 1778073108 | 16.67° C | 59% | 1009.4 hPa | - | - | 137 W/m² | - |
* Rain since midnight (hover to see other rain measurements)
** Current wind speed in m/s (hover to see current wind gust speed)